TimeEST,TemperatureF,Dew PointF,Humidity,Sea Level PressureIn,VisibilityMPH,Wind Direction,Wind SpeedMPH,Gust SpeedMPH,PrecipitationIn,Events,Conditions,WindDirDegrees,DateUTC
12:15 AM,30.6,19.2,63,30.43,10.0,NNW,8.1,-,N/A,,Overcast,330,2013-11-29 05:15:00
12:35 AM,30.2,19.9,66,30.43,10.0,NNW,3.5,-,N/A,,Overcast,330,2013-11-29 05:35:00
12:55 AM,30.2,19.4,64,30.43,10.0,NW,6.9,-,N/A,,Overcast,310,2013-11-29 05:55:00
1:15 AM,30.2,19.2,64,30.44,10.0,NNW,5.8,-,N/A,,Overcast,340,2013-11-29 06:15:00
1:35 AM,28.8,21.2,73,30.45,10.0,Calm,Calm,-,N/A,,Overcast,0,2013-11-29 06:35:00
1:55 AM,28.2,21.6,76,30.45,10.0,Calm,Calm,-,N/A,,Overcast,0,2013-11-29 06:55:00
2:15 AM,27.9,21.6,77,30.46,10.0,Calm,Calm,-,N/A,,Overcast,0,2013-11-29 07:15:00
2:35 AM,27.9,21.6,77,30.47,10.0,Calm,Calm,-,N/A,,Overcast,0,2013-11-29 07:35:00
2:55 AM,27.9,21.6,77,30.48,10.0,Calm,Calm,-,N/A,,Overcast,0,2013-11-29 07:55:00
3:15 AM,27.5,21.6,78,30.49,10.0,Calm,Calm,-,N/A,,Overcast,0,2013-11-29 08:15:00
3:35 AM,27.3,21.7,80,30.49,10.0,Calm,Calm,-,N/A,,Overcast,0,2013-11-29 08:35:00
3:55 AM,27.5,21.2,77,30.49,10.0,Calm,Calm,-,N/A,,Overcast,0,2013-11-29 08:55:00
4:15 AM,27.3,21.2,78,30.49,10.0,Calm,Calm,-,N/A,,Overcast,0,2013-11-29 09:15:00
4:35 AM,27.1,21.7,80,30.50,10.0,Calm,Calm,-,N/A,,Overcast,0,2013-11-29 09:35:00
4:54 AM,27.0,21.9,81,30.51,10.0,Calm,Calm,-,N/A,,Overcast,0,2013-11-29 09:54:00
5:15 AM,27.0,21.7,81,30.51,10.0,Calm,Calm,-,N/A,,Overcast,0,2013-11-29 10:15:00
5:35 AM,26.6,21.4,81,30.52,10.0,Calm,Calm,-,N/A,,Overcast,0,2013-11-29 10:35:00
5:54 AM,27.1,21.2,78,30.52,10.0,ESE,3.5,-,N/A,,Overcast,120,2013-11-29 10:54:00
6:15 AM,27.0,21.2,79,30.53,10.0,Calm,Calm,-,N/A,,Overcast,0,2013-11-29 11:15:00
6:35 AM,26.8,21.2,79,30.54,10.0,Calm,Calm,-,N/A,,Overcast,0,2013-11-29 11:35:00
6:55 AM,27.0,21.2,79,30.55,10.0,Calm,Calm,-,N/A,,Overcast,0,2013-11-29 11:55:00
7:15 AM,27.3,21.2,78,30.56,10.0,South,3.5,-,N/A,,Overcast,170,2013-11-29 12:15:00
7:34 AM,27.1,21.2,78,30.57,10.0,Calm,Calm,-,N/A,,Overcast,0,2013-11-29 12:34:00
7:55 AM,27.3,21.2,78,30.57,10.0,Calm,Calm,-,N/A,,Overcast,0,2013-11-29 12:55:00
8:15 AM,27.1,21.2,78,30.58,10.0,Calm,Calm,-,N/A,,Overcast,0,2013-11-29 13:15:00
8:35 AM,27.3,21.2,78,30.59,10.0,Calm,Calm,-,N/A,,Overcast,0,2013-11-29 13:35:00
8:55 AM,27.5,21.4,78,30.59,10.0,Calm,Calm,-,N/A,,Overcast,0,2013-11-29 13:55:00
9:15 AM,28.0,21.2,76,30.59,10.0,Calm,Calm,-,N/A,,Overcast,0,2013-11-29 14:15:00
9:35 AM,28.2,21.6,76,30.60,10.0,Calm,Calm,-,N/A,,Overcast,0,2013-11-29 14:35:00
9:55 AM,28.9,21.6,74,30.60,10.0,ESE,3.5,-,N/A,,Overcast,120,2013-11-29 14:55:00
10:15 AM,29.8,21.6,71,30.61,10.0,Calm,Calm,-,N/A,,Overcast,0,2013-11-29 15:15:00
10:35 AM,30.7,21.6,69,30.61,10.0,Calm,Calm,-,N/A,,Overcast,0,2013-11-29 15:35:00
10:55 AM,31.5,20.8,65,30.61,10.0,SE,4.6,-,N/A,,Overcast,140,2013-11-29 15:55:00
11:15 AM,31.8,21.2,65,30.62,10.0,South,5.8,-,N/A,,Overcast,170,2013-11-29 16:15:00
11:35 AM,32.0,20.8,63,30.61,10.0,South,5.8,-,N/A,,Overcast,170,2013-11-29 16:35:00
11:55 AM,32.0,20.7,63,30.60,10.0,SSE,4.6,-,N/A,,Overcast,160,2013-11-29 16:55:00
12:15 PM,32.4,20.8,63,30.60,10.0,South,5.8,-,N/A,,Overcast,170,2013-11-29 17:15:00
12:35 PM,32.9,20.7,61,30.59,10.0,SSE,4.6,-,N/A,,Overcast,160,2013-11-29 17:35:00
12:55 PM,32.9,19.9,59,30.59,10.0,Calm,Calm,-,N/A,,Overcast,0,2013-11-29 17:55:00
1:15 PM,32.9,20.5,60,30.59,10.0,SSW,3.5,-,N/A,,Overcast,200,2013-11-29 18:15:00
1:35 PM,33.8,20.1,57,30.58,10.0,Calm,Calm,-,N/A,,Overcast,0,2013-11-29 18:35:00
1:55 PM,33.8,19.8,56,30.57,10.0,SSE,3.5,-,N/A,,Overcast,160,2013-11-29 18:55:00
2:15 PM,33.3,19.4,57,30.57,10.0,Calm,Calm,-,N/A,,Overcast,0,2013-11-29 19:15:00
2:35 PM,34.0,19.9,56,30.56,10.0,East,5.8,-,N/A,,Overcast,100,2013-11-29 19:35:00
2:55 PM,33.8,19.4,56,30.56,10.0,SE,8.1,-,N/A,,Overcast,130,2013-11-29 19:55:00
3:15 PM,34.0,19.2,55,30.56,10.0,SE,5.8,-,N/A,,Mostly Cloudy,130,2013-11-29 20:15:00
3:35 PM,32.7,18.7,56,30.56,10.0,SSE,5.8,-,N/A,,Scattered Clouds,160,2013-11-29 20:35:00
3:55 PM,32.5,18.9,57,30.56,10.0,SSE,3.5,-,N/A,,Clear,150,2013-11-29 20:55:00
4:15 PM,32.5,18.3,56,30.56,10.0,SSE,4.6,-,N/A,,Clear,160,2013-11-29 21:15:00
4:35 PM,32.7,18.3,55,30.56,10.0,South,3.5,-,N/A,,Clear,170,2013-11-29 21:35:00
4:55 PM,32.0,18.5,58,30.56,10.0,Calm,Calm,-,N/A,,Clear,0,2013-11-29 21:55:00
5:15 PM,30.2,18.9,63,30.56,10.0,Calm,Calm,-,N/A,,Clear,0,2013-11-29 22:15:00
5:35 PM,28.0,18.5,67,30.55,5.0,Calm,Calm,-,N/A,,Haze,0,2013-11-29 22:35:00
5:55 PM,24.3,18.5,79,30.55,4.0,Calm,Calm,-,N/A,,Haze,0,2013-11-29 22:55:00
6:15 PM,24.1,19.4,82,30.55,10.0,Calm,Calm,-,N/A,,Clear,0,2013-11-29 23:15:00
6:35 PM,27.0,18.7,71,30.54,7.0,Calm,Calm,-,N/A,,Clear,0,2013-11-29 23:35:00
6:55 PM,23.2,19.6,86,30.54,10.0,Calm,Calm,-,N/A,,Clear,0,2013-11-29 23:55:00
7:15 PM,24.1,19.0,81,30.53,10.0,Calm,Calm,-,N/A,,Clear,0,2013-11-30 00:15:00
7:35 PM,22.8,17.4,80,30.52,7.0,Calm,Calm,-,N/A,,Clear,0,2013-11-30 00:35:00
7:55 PM,22.1,17.1,81,30.52,10.0,Calm,Calm,-,N/A,,Clear,0,2013-11-30 00:55:00
8:15 PM,24.8,18.7,78,30.51,10.0,Calm,Calm,-,N/A,,Clear,0,2013-11-30 01:15:00
8:35 PM,26.8,18.5,71,30.50,10.0,Calm,Calm,-,N/A,,Clear,0,2013-11-30 01:35:00
8:55 PM,28.6,19.0,67,30.50,10.0,SE,3.5,-,N/A,,Clear,140,2013-11-30 01:55:00
9:15 PM,28.9,19.0,67,30.49,10.0,SE,3.5,-,N/A,,Clear,140,2013-11-30 02:15:00
9:35 PM,28.6,18.7,66,30.49,10.0,Calm,Calm,-,N/A,,Clear,0,2013-11-30 02:35:00
9:55 PM,28.4,18.9,67,30.49,10.0,SE,3.5,-,N/A,,Clear,140,2013-11-30 02:55:00
10:15 PM,28.4,18.7,67,30.49,10.0,Calm,Calm,-,N/A,,Clear,0,2013-11-30 03:15:00
10:35 PM,28.8,19.0,67,30.49,10.0,SSE,3.5,-,N/A,,Clear,150,2013-11-30 03:35:00
10:55 PM,28.9,19.4,68,30.48,10.0,SE,3.5,-,N/A,,Clear,130,2013-11-30 03:55:00
11:15 PM,29.3,19.9,68,30.47,10.0,SE,4.6,-,N/A,,Clear,130,2013-11-30 04:15:00
11:35 PM,29.8,20.3,68,30.46,10.0,SE,5.8,-,N/A,,Clear,140,2013-11-30 04:35:00
11:55 PM,30.2,20.5,67,30.45,10.0,SE,6.9,-,N/A,,Clear,140,2013-11-30 04:55:00